Preview of NWS' New Version of Forecast
This preview is not operational and should not be used for support decisions.

Regional Weather Roundup (RWR)

Issued by National Weather Service (NWS)

                            
000
ASUS43 KDTX 200501
RWRMI 
MICHIGAN HOURLY REGIONAL WEATHER ROUNDUP
NATIONAL WEATHER SERVICE DETROIT/PONTIAC MI
100 AM EDT THU JUN 20 2019

NOTE: "FAIR" INDICATES FEW OR NO CLOUDS BELOW 12,000 FEET WITH NO
SIGNIFICANT WEATHER AND/OR OBSTRUCTION TO VISIBILITY.

MIZ047>049-052>055-059>063-066>070-074>076-081>083-200600-
SOUTHEAST LOWER MICHIGAN
  
CITY           SKY/WX    TMP DP  RH WIND       PRES   REMARKS
ADRIAN         LGT RAIN  67  61  81 CALM      29.65F                  
ALMA           LGT RAIN  62  59  88 NE6       29.70F                  
ANN ARBOR      LGT RAIN  64  61  90 CALM      29.65F                  
BAD AXE        DRIZZLE   56  54  94 NE7       29.70F                  
DETROIT CITY   MOCLDY    66  58  75 NE6       29.66F                  
DETROIT        LGT RAIN  69  59  70 NE7       29.65F                  
FLINT          LGT RAIN  65  61  87 NE8       29.68F                  
GROSSE ILE     LGT RAIN  65  62  89 NE7       29.64F                  
HILLSDALE      CLOUDY    64  62  94 CALM      29.64F                  
HOWELL         LGT RAIN  65  63  91 NE5       29.67F                  

CITY           SKY/WX    TMP DP  RH WIND       PRES   REMARKS
JACKSON        CLOUDY    65  64  97 NE5       29.65F                  
LAMBERTVILLE   LGT RAIN  66  64  93 CALM      29.64S                  
LANSING        RAIN      63  63 100 NE8       29.67F FOG              
LAPEER         DRIZZLE   62  59  90 N3        29.69F                  
MASON          HVY RAIN  66  65  96 E9        29.67F                  
MONROE         RAIN      67  67  98 E3        29.63F                  
PONTIAC        CLOUDY    65  61  87 NE7       29.66F                  
PORT HOPE        N/A     54  53  97 N8        29.70F                  
PORT HURON     CLOUDY    61  54  77 CALM      29.67F                  
TRI CITIES     LGT RAIN  59  59 100 NE7       29.71F                  
MIDLAND        NOT AVBL                                               
TROY           MOCLDY    66  57  72 NE6       29.68F                  
SAGINAW HB     RAIN      61  59  94 NE5       29.70F                  
$$
MIZ043>046-050>051-056>058-064>065-071>073-077>080-200600-
SOUTHWEST LOWER MICHIGAN
  
CITY           SKY/WX    TMP DP  RH WIND       PRES   REMARKS
BATTLE CREEK   RAIN      66  65  96 NE10      29.64F                  
BENTON HARBOR  CLOUDY    62  60  93 CALM      29.62F                  
BIG RAPIDS     LGT RAIN  63  61  94 E3        29.71S                  
COLDWATER      LGT RAIN  67  67 100 CALM      29.64S                  
FREMONT        DRIZZLE   64  62  96 NE7       29.69S                  
HOLLAND        LGT RAIN  65  61  87 VRB6      29.66F                  
GRAND RAPIDS   RAIN      63  60  90 NE9       29.67S                  
IONIA          LGT RAIN  62  60  92 NE6       29.67S                  
KALAMAZOO      LGT RAIN  67  65  93 N7        29.63F FOG              
MARSHALL       CLOUDY    66  66 100 E3        29.64F                  
MUSKEGON       LGT RAIN  65  61  87 NE7       29.67F                  
SOUTH HAVEN    RAIN      66  65  97 NE5       29.64S                  
$$
MIZ016>042-200600-
NORTHERN LOWER MICHIGAN
  
CITY           SKY/WX    TMP DP  RH WIND       PRES   REMARKS
ALPENA         FAIR      51  49  92 CALM      29.75F                  
BEAVER ISLAND  FAIR      56  46  70 NE6       29.78S                  
BELLAIRE       FAIR      57  54  89 CALM      29.75S                  
CADILLAC       CLOUDY    61  59  94 NE5       29.72S                  
CHARLEVOIX     FAIR      59  49  69 NE7       29.79S                  
FRANKFORT      FAIR      61  54  78 NE6       29.73S                  
GAYLORD        FAIR      56  53  90 NE7       29.76F                  
HARBOR SPRINGS FAIR      56  49  78 CALM      29.76S                  
HOUGHTON LAKE  FAIR      58  55  90 NE7       29.74S                  
MANISTEE       FAIR      56  54  93 CALM      29.71F                  
OSCODA         CLOUDY    57  52  85 NE6       29.72F                  
PELLSTON       FAIR      51  49  92 CALM      29.77F                  
ROGERS CITY    FAIR      51  49  94 CALM      29.77S                  
TRAVERSE CITY  MOCLDY    58  54  86 N7        29.73S                  
$$
MIZ007>008-015-200600-
EASTERN UPPER MICHIGAN
  
CITY           SKY/WX    TMP DP  RH WIND       PRES   REMARKS
KINROSS        CLOUDY    52  46  80 N8        29.78F                  
MACKINAC ISLAN FAIR      55  46  72 N9        29.77S                  
NEWBERRY       CLOUDY    49  47  92 CALM      29.80S                  
S. S. MARIE    FAIR      52  47  83 W3        29.78S                  
MUNISING         N/A     46  44  93 N5        29.81F                  
$$
MIZ004>006-011>014-085-200600-
CENTRAL UPPER MICHIGAN
  
CITY           SKY/WX    TMP DP  RH WIND       PRES   REMARKS
ESCANABA       FAIR      55  46  71 VRB5      29.79F                  
MENOMINEE      FAIR      59  47  64 NE8       29.78S                  
$$
MIZ001>003-009>011-084-200600-
WESTERN UPPER MICHIGAN
  
CITY           SKY/WX    TMP DP  RH WIND       PRES   REMARKS
IRON MOUNTAIN  FAIR      52  44  74 NW3       29.80S                  
HOUGHTON       FAIR      47  42  83 CALM      29.82F                  
COPPER HARBOR    N/A     47  45  93 CALM      29.83F                  
IRONWOOD       FAIR      45  44  97 E3        29.83S                  
$$

ABBREVIATIONS USED IN REMARKS
   TC - TEMPERATURE IN CELSIUS
  WCI - WIND CHILL INDEX
   HX - HEAT INDEX
  VSB - VISIBILITY